FENGYUN 1C DEB

Satellite information

Favourite Embed

Satellite Type and Status

DEBRISIN ORBIT

Key statistics

Satellite FENGYUN 1C DEB at a glance.

Uptime

9556

Days in orbit

Revolutions

≈ 13.2

Per day

Orbit

SSO

Sun Synchronous Orbit

Inclination

98.9

Latest

Satellite identification and parameters

Extended collection of information and parameters for FENGYUN 1C DEB.

Object identification

Identified? True

Debris? True

Object name: FENGYUN 1C DEB

International designator: 1999-025AZS

Object number (NORAD): 30928

Object ID (CCSDS): 30928

Country: PEOPLES REPUBLIC OF CHINA (PRC)

Current information (Y/N): Y

RCS size: SMALL

Orbital parameters

Period: 108.937 minutes

Inclination: 98.8806 deg

SMA: 7555.723 km

Apoapsis: 1520.693 km

Periapsis: 834.482 km

RAAN: 301.3094 deg

Eccentricy: 0.04541

Argument of periapsis: 56.7746 deg

Mean anomaly: 96.0934 deg

Mean motion: 13.21869982 rev/day

Mean motion (dot): 0.00000085 rev/day2

B* drag term: 0.00016457 1/REarth

Two-line elements (TLE)

Creation date: July 8, 2025, 2:27 a.m.

Reference frame: TEME

Reference center: EARTH

Epoch: July 7, 2025, 7 p.m. UTC

TLE line 0: 0 FENGYUN 1C DEB

TLE line 1: 1 30928U 99025AZS 25188.79229894 .00000085 00000-0 16457-3 0 9990

TLE line 2: 2 30928 98.8806 301.3094 0454100 56.7746 96.0934 13.21869982882617

Live tracking on map

Real-time ground track for satellite FENGYUN 1C DEB.

In-orbit conjunctions

A list of the most updated potential collisions computed for object FENGYUN 1C DEB.

Target Orbit TCA Probability of collision Miss distance Type
CZ-6A DEB SSO 2024-08-05 01:44:09 0.0004248659 78.0 (m) DEBRIS
DELTA 1 R/B SSO 2024-06-01 23:07:47 0.000161155 104.0 (m) ROCKET BODY
COSMOS 2322 LEO 2024-05-27 09:48:25 0.0001191964 150.0 (m) PAYLOAD

Associated space launch

Chinese polar orbiting meteorological satellite

FENGYUN 1C DEB was lifted into orbit during the mission ‘Long March 4B | Feng Yun 1C’, on board a Long March 4B space rocket.

The launch took place on May 10, 1999, 1:33 a.m. from Launch Complex 7.

For more information about the launch, click the button.

Launch to space Long March 4B | Feng Yun 1C
Long March 4B | Feng Yun 1C

Agency: N/A

Status: Launch Successful

Launch date: May 10, 1999, 1:33 a.m. UTC

Rocket: Long March 4B

Launch pad: Launch Complex 7

Location: Taiyuan Satellite Launch Center, People's Republic of China

...

Latest news about this satellite

There are no fresh news available about this satellite. Check back as we update our databases every day.


Newsletter sign-up

Weekly statistics, charts and insights to help you stay on top of the space industry.